Temp
60 59 59 60 60 60 60 60 61 60 61 61 61 62 62 62 63 58 51 58 62 67 65 58 59 58 56 52 51 48 38 33 33 36 36 41 40 45 47 43 46 49 47 51 56
60 59 59 59 59 59 60 60 60 60 60 61 61 61 62 62 57 53 63 67 67 67 58 56 54 55 48 48 47 42 34 35 38 38 37 40 40 41 42 42 43 45 50 53 53
60 59 59 59 59 59 59 60 60 60 60 60 61 61 61 59 53 53 66 67 67 65 57 56 55 53 46 46 45 41 37 41 42 44 44 42 41 43 40 38 41 41 46 50 51
60 59 58 58 58 59 59 59 60 60 60 60 61 61 61 55 45 56 65 66 66 62 59 56 53 46 42 42 45 41 44 45 46 47 45 41 43 40 40 41 46 46 49 52 50
60 59 58 58 58 58 59 59 59 60 60 60 61 61 56 51 49 61 63 62 61 59 54 52 50 46 42 43 44 42 42 47 46 46 45 46 41 41 40 44 46 48 52 50 50
59 58 57 57 57 58 58 59 59 59 60 61 62 61 52 46 58 60 58 59 58 56 52 52 49 50 46 44 43 43 45 45 46 45 46 42 40 43 42 45 45 47 49 49 49
60 58 57 57 57 57 58 58 59 59 60 61 62 57 51 48 58 57 59 57 57 55 52 53 52 51 48 44 47 45 40 41 43 44 43 44 39 39 42 44 44 47 48 48 48
60 59 57 57 57 57 58 58 59 59 60 61 62 53 45 58 56 58 58 57 59 59 56 55 55 50 47 47 44 40 37 32 40 43 44 42 33 40 43 42 42 46 46 46 47
58 58 57 57 57 57 57 58 58 59 61 61 52 50 44 60 54 56 56 54 55 57 56 61 54 45 45 37 30 31 26 28 36 43 42 40 33 40 43 42 40 42 45 45 45
58 58 57 57 57 57 57 58 58 58 58 59 57 48 50 48 53 55 56 55 53 52 52 51 43 38 35 31 23 27 26 31 30 39 40 36 36 39 42 41 38 40 43 43 43
58 58 57 57 57 57 51 49 48 47 49 43 44 46 48 53 55 53 54 53 52 50 41 43 35 27 28 32 32 27 25 24 32 39 36 33 34 38 40 39 37 37 40 41 43
58 58 57 57 57 57 47 45 47 49 41 48 48 48 50 50 47 51 54 47 47 39 41 36 30 37 39 38 35 31 28 24 32 38 35 28 33 38 39 37 37 37 37 40 42
58 57 57 57 56 49 44 47 49 48 43 44 47 47 47 49 45 46 50 47 43 39 37 34 37 42 40 36 36 33 33 30 30 34 35 33 30 32 39 39 40 39 38 39 39
57 57 57 56 48 45 45 50 49 48 31 39 41 45 48 48 43 50 49 46 43 37 37 37 39 39 36 36 35 33 37 36 34 31 24 32 18 28 35 37 37 37 36 35 37
57 56 57 56 44 45 48 49 48 48 25 39 41 50 47 44 44 45 49 46 39 39 38 33 36 34 35 35 37 34 38 35 34 31 28 29 26 29 33 34 33 36 36 36 36
56 56 56 52 46 47 48 48 47 33 26 34 40 40 40 41 42 44 44 47 45 40 39 36 40 37 36 38 38 39 36 35 32 29 19 27 25 28 30 35 33 34 34 36 36
55 55 53 51 45 49 48 45 34 30 36 29 33 38 37 36 38 39 38 35 31 27 25 34 34 37 39 35 37 36 31 23 22 19 23 28 26 32 35 38 38 37 35 32 33
55 55 52 50 48 47 46 37 30 26 26 36 35 36 34 37 35 36 35 29 34 32 22 26 26 34 37 34 34 33 32 24 21 21 25 30 28 34 36 38 38 38 36 34 32
54 46 45 46 48 46 38 33 32 30 35 34 36 30 29 35 35 33 31 30 35 36 31 27 27 35 36 37 36 33 29 33 27 15 20 27 32 35 35 36 36 36 35 34 33
46 44 43 47 47 44 32 35 30 35 38 36 30 31 23 27 30 31 31 35 35 37 35 35 28 33 35 36 36 34 37 29 26 18 19 27 29 32 34 34 35 35 35 34 34
46 39 42 47 46 35 25 28 29 36 39 37 32 25 31 27 27 28 31 33 35 35 36 35 33 29 33 32 32 32 30 31 31 29 25 23 30 35 34 36 36 36 38 35 34
43 33 41 43 28 20 23 28 38 35 37 36 35 33 32 29 28 26 32 32 37 38 35 36 33 23 27 32 34 32 32 33 26 27 26 28 29 39 38 37 39 38 39 37 35
36 32 41 38 23 18 21 24 32 34 35 35 33 35 34 32 29 32 30 35 36 37 34 37 27 17 25 30 31 32 33 34 32 30 27 22 31 39 36 37 38 38 37 37 35
35 27 32 33 27 27 22 23 28 34 35 36 36 36 33 30 26 27 31 34 35 35 43 41 30 29 29 31 30 29 31 33 33 23 28 28 32 36 37 38 38 38 38 36 36
33 31 32 25 26 27 33 29 28 26 33 35 33 34 34 25 27 23 28 31 34 39 34 33 24 24 30 31 31 32 31 31 31 31 31 33 31 37 38 39 39 40 38 37 36
33 29 31 30 35 31 36 27 35 32 31 31 32 35 34 30 36 28 30 30 32 31 32 32 18 17 19 26 28 29 31 31 31 31 31 31 33 41 41 36 35 40 39 38 38
40 40 41 35 34 31 34 34 34 38 35 37 38 35 33 36 34 32 33 33 33 31 24 24 18 18 20 14 19 25 27 31 30 31 34 31 38 38 36 40 40 40 40 39 39
MSLP
1019.93 1019.82 1019.72 1019.59 1019.45 1019.38 1019.20 1018.93 1018.62 1018.34 1017.99 1017.61 1017.36 1016.98 1016.58 1016.16 1015.79 1015.68 1016.41 1016.83 1016.15 1015.39 1014.98 1014.67 1014.43 1014.49 1014.72 1015.94 1016.50 1016.97 1018.88 1020.76 1020.93 1021.04 1021.17 1021.23 1021.31 1021.18 1021.11 1020.99 1020.90 1020.89 1020.94 1020.01 1019.04
1019.83 1019.79 1019.65 1019.55 1019.40 1019.31 1019.19 1018.97 1018.73 1018.45 1018.07 1017.67 1017.40 1017.01 1016.68 1016.34 1016.20 1016.45 1016.73 1016.18 1015.73 1015.26 1015.14 1015.12 1015.15 1015.18 1016.20 1016.98 1017.61 1018.33 1019.97 1020.79 1021.00 1021.04 1021.17 1021.41 1021.57 1021.57 1021.50 1021.51 1021.25 1021.10 1020.68 1019.93 1019.30
1019.72 1019.66 1019.65 1019.50 1019.30 1019.20 1019.09 1018.99 1018.76 1018.52 1018.08 1017.74 1017.36 1017.00 1016.75 1016.42 1016.52 1016.84 1016.34 1015.96 1015.47 1015.13 1015.20 1015.37 1015.46 1015.78 1017.09 1017.73 1018.62 1019.38 1020.41 1020.91 1021.05 1021.00 1021.18 1021.45 1021.59 1021.68 1021.86 1021.85 1021.89 1021.60 1020.46 1019.71 1019.12
1019.52 1019.55 1019.53 1019.52 1019.20 1019.02 1018.98 1018.89 1018.71 1018.42 1018.08 1017.67 1017.38 1016.88 1016.66 1016.55 1017.23 1016.84 1016.37 1015.90 1015.37 1014.97 1015.12 1015.46 1015.70 1016.74 1017.92 1018.70 1019.22 1019.88 1020.76 1020.73 1020.89 1020.99 1021.23 1021.40 1021.59 1021.88 1022.16 1022.31 1022.02 1021.51 1020.74 1019.79 1019.00
1019.16 1019.34 1019.44 1019.44 1019.26 1018.88 1018.79 1018.82 1018.61 1018.34 1018.08 1017.66 1017.34 1016.89 1016.75 1016.93 1017.46 1016.79 1016.46 1016.02 1015.46 1015.43 1015.81 1015.91 1016.25 1017.14 1018.38 1019.07 1019.60 1020.25 1020.84 1020.84 1020.98 1021.11 1021.25 1021.38 1021.61 1021.89 1022.07 1022.16 1021.85 1021.26 1020.43 1019.79 1019.33
1018.95 1019.21 1019.30 1019.37 1019.21 1018.88 1018.65 1018.67 1018.55 1018.27 1018.01 1017.63 1017.40 1016.88 1016.89 1017.28 1017.38 1017.09 1016.77 1016.28 1016.24 1016.02 1016.39 1016.42 1016.78 1017.00 1018.35 1019.39 1019.78 1020.56 1020.87 1021.18 1021.19 1021.20 1021.20 1021.44 1021.72 1021.88 1022.13 1022.12 1021.67 1021.19 1020.51 1019.91 1019.43
1018.75 1018.96 1019.11 1019.22 1019.13 1018.96 1018.45 1018.51 1018.43 1018.16 1017.97 1017.64 1017.36 1017.15 1017.26 1017.68 1017.37 1017.28 1016.87 1016.66 1016.68 1016.58 1016.66 1017.01 1017.01 1017.18 1018.53 1019.77 1020.31 1020.90 1021.44 1021.51 1021.41 1021.30 1021.30 1021.53 1021.98 1022.23 1022.35 1022.25 1021.91 1021.37 1020.86 1020.09 1019.47
1018.46 1018.67 1018.84 1019.08 1018.98 1018.87 1018.44 1018.19 1018.19 1018.00 1017.84 1017.54 1017.32 1017.21 1017.75 1017.40 1017.44 1017.34 1017.01 1016.77 1016.74 1016.73 1016.82 1017.06 1017.18 1017.91 1019.17 1020.16 1021.03 1021.79 1022.32 1022.43 1021.91 1021.52 1021.51 1021.78 1022.39 1022.32 1022.55 1022.56 1022.30 1021.77 1021.10 1020.35 1019.42
1018.13 1018.30 1018.81 1018.80 1018.89 1018.74 1018.43 1017.87 1017.91 1017.81 1017.67 1017.40 1017.42 1017.27 1017.88 1017.48 1017.62 1017.57 1017.41 1017.40 1017.18 1016.98 1016.94 1017.11 1017.60 1019.47 1020.32 1021.33 1022.59 1023.40 1023.63 1023.59 1022.63 1022.18 1022.27 1022.30 1022.60 1022.61 1022.71 1022.78 1022.86 1022.36 1021.78 1021.15 1019.98
1017.68 1018.09 1018.65 1018.59 1018.82 1018.58 1018.33 1017.68 1017.65 1017.67 1017.45 1017.41 1017.48 1017.86 1018.06 1017.99 1017.91 1017.76 1017.56 1017.52 1017.47 1017.37 1017.48 1017.98 1019.18 1020.53 1022.02 1022.63 1024.07 1024.49 1024.54 1024.15 1023.63 1023.10 1022.79 1022.90 1023.05 1023.03 1023.02 1023.21 1023.25 1022.94 1022.39 1021.66 1020.98
1017.31 1017.91 1018.34 1018.51 1018.63 1018.57 1018.55 1017.81 1018.29 1018.30 1018.12 1018.02 1018.26 1018.19 1018.15 1018.11 1017.96 1017.89 1017.90 1017.80 1017.65 1017.97 1018.94 1019.66 1020.76 1022.13 1023.13 1023.40 1024.14 1024.74 1024.92 1025.24 1024.30 1023.65 1023.48 1023.62 1023.57 1023.23 1023.18 1023.36 1023.42 1023.40 1022.90 1022.27 1021.55
1016.94 1017.66 1017.96 1018.32 1018.65 1018.61 1018.86 1018.30 1017.75 1017.77 1018.35 1018.33 1018.31 1018.44 1018.31 1018.36 1018.21 1018.15 1018.14 1018.31 1018.24 1019.14 1019.69 1020.60 1021.71 1022.39 1022.88 1023.26 1023.75 1024.28 1024.72 1024.94 1024.65 1024.17 1024.00 1024.04 1023.68 1023.25 1023.10 1023.44 1023.70 1023.78 1023.37 1022.83 1022.02
1016.67 1017.27 1017.77 1018.26 1018.65 1018.73 1018.51 1017.88 1017.83 1017.53 1018.23 1018.57 1018.43 1018.49 1018.58 1018.57 1018.59 1018.54 1018.56 1018.57 1018.93 1019.76 1020.43 1021.05 1021.94 1022.19 1022.49 1022.84 1023.23 1023.67 1023.98 1024.43 1024.51 1024.13 1024.20 1024.35 1024.16 1023.50 1023.11 1023.24 1023.55 1023.80 1023.78 1023.34 1022.69
1016.31 1016.94 1017.49 1018.40 1019.22 1018.34 1018.08 1017.57 1017.82 1017.71 1018.53 1018.79 1018.69 1018.64 1018.67 1018.45 1018.85 1018.76 1018.73 1018.97 1019.35 1020.45 1021.02 1021.65 1022.05 1022.15 1022.22 1022.50 1022.98 1023.16 1023.31 1023.62 1023.94 1024.31 1024.78 1024.50 1024.58 1023.67 1023.14 1023.24 1023.49 1023.82 1023.78 1023.67 1023.28
1015.88 1016.63 1017.13 1018.38 1018.53 1018.13 1017.62 1017.58 1017.84 1017.90 1019.16 1019.03 1018.80 1018.77 1018.68 1018.90 1019.11 1018.89 1018.78 1018.80 1019.71 1020.58 1021.22 1022.25 1022.09 1022.19 1022.11 1022.24 1022.35 1022.88 1023.05 1023.32 1023.63 1024.25 1024.82 1024.52 1024.57 1023.29 1023.05 1023.15 1023.42 1023.80 1023.93 1024.11 1024.08
1015.30 1016.14 1016.92 1018.06 1018.65 1017.77 1017.60 1017.57 1018.17 1019.01 1019.10 1018.99 1018.94 1018.99 1019.07 1019.18 1019.26 1019.24 1019.09 1019.24 1019.96 1020.87 1021.55 1022.18 1022.04 1022.07 1022.04 1022.05 1022.30 1022.55 1023.03 1023.46 1024.00 1024.43 1024.70 1024.34 1024.30 1022.89 1022.69 1022.44 1023.08 1023.63 1024.00 1024.27 1024.24
1014.57 1015.83 1016.55 1017.90 1017.77 1017.44 1017.71 1017.87 1019.25 1019.19 1019.22 1019.32 1019.29 1019.28 1019.41 1019.69 1019.83 1019.85 1019.86 1020.10 1020.61 1021.60 1022.92 1022.65 1022.49 1022.22 1022.15 1022.19 1022.39 1022.58 1023.15 1023.80 1024.66 1024.70 1024.37 1023.69 1023.67 1021.83 1021.64 1021.97 1022.49 1023.32 1023.88 1024.27 1024.46
1013.90 1015.30 1016.46 1017.43 1017.51 1017.71 1017.60 1018.57 1019.21 1018.63 1019.04 1018.98 1019.34 1019.66 1019.93 1019.83 1020.25 1020.46 1020.57 1020.84 1020.84 1021.08 1022.71 1022.84 1023.17 1022.56 1022.45 1022.46 1022.48 1022.87 1023.24 1024.00 1024.97 1025.54 1024.67 1023.41 1022.38 1021.31 1021.34 1021.77 1022.44 1023.21 1023.78 1024.35 1024.66
1013.73 1015.87 1017.05 1017.41 1017.55 1017.76 1017.85 1018.74 1018.04 1018.04 1018.13 1018.66 1019.65 1020.05 1020.57 1020.28 1020.49 1021.00 1021.23 1021.17 1020.53 1020.74 1021.11 1022.09 1022.84 1022.80 1022.67 1022.67 1022.88 1023.05 1023.61 1023.85 1024.51 1025.89 1025.00 1022.92 1021.48 1020.80 1021.08 1021.92 1022.46 1023.21 1023.98 1024.48 1024.86
1013.67 1015.86 1017.01 1017.19 1017.53 1017.77 1018.37 1018.22 1018.16 1017.60 1017.78 1018.03 1018.74 1019.44 1020.45 1020.53 1021.09 1021.48 1021.35 1020.37 1020.35 1020.46 1020.48 1021.13 1022.65 1023.30 1023.12 1023.07 1023.20 1023.21 1023.63 1024.21 1024.48 1025.24 1024.96 1022.72 1021.73 1020.60 1020.67 1020.91 1021.85 1022.79 1023.36 1024.07 1024.63
1012.87 1015.47 1017.17 1017.06 1017.42 1018.30 1018.58 1018.36 1017.90 1017.55 1017.35 1017.61 1018.22 1019.26 1019.89 1020.17 1020.97 1021.38 1021.00 1020.53 1020.25 1020.55 1020.53 1020.98 1021.57 1024.07 1023.73 1023.47 1023.25 1023.70 1023.74 1024.32 1024.65 1024.46 1024.56 1023.42 1021.00 1019.65 1019.96 1020.53 1021.25 1021.91 1022.83 1023.61 1024.41
1011.86 1015.43 1017.00 1017.23 1018.31 1018.51 1018.69 1017.88 1017.50 1017.62 1017.52 1017.26 1017.60 1018.51 1019.22 1019.98 1020.55 1021.29 1020.78 1020.56 1020.17 1020.21 1020.80 1020.96 1021.95 1023.75 1023.97 1023.74 1023.47 1023.31 1023.45 1023.81 1024.86 1024.98 1024.37 1023.45 1020.58 1018.97 1019.35 1019.80 1020.34 1020.92 1021.74 1022.77 1023.72
1012.16 1015.57 1017.06 1017.36 1017.94 1018.78 1018.64 1018.12 1017.62 1017.70 1017.43 1017.40 1017.65 1017.88 1018.67 1019.46 1020.20 1020.60 1020.58 1020.73 1020.55 1020.48 1020.60 1020.85 1022.34 1023.92 1024.34 1024.47 1024.06 1023.61 1023.34 1023.43 1024.04 1024.50 1024.34 1023.47 1020.14 1018.97 1019.15 1019.53 1020.00 1020.58 1021.40 1022.31 1023.03
1012.01 1015.21 1017.02 1017.61 1017.36 1017.16 1017.66 1017.75 1017.57 1017.43 1017.10 1016.97 1017.16 1017.67 1018.60 1019.54 1020.04 1020.72 1021.05 1021.18 1021.07 1021.03 1021.02 1021.11 1022.48 1023.06 1023.03 1022.54 1022.64 1023.29 1023.00 1023.35 1023.53 1024.07 1023.95 1022.76 1020.81 1019.35 1019.15 1019.33 1019.49 1020.11 1020.81 1021.73 1022.44
1010.17 1012.49 1013.16 1015.53 1016.62 1016.53 1016.37 1016.27 1016.68 1017.15 1017.10 1016.83 1017.19 1017.21 1017.66 1019.30 1020.01 1020.61 1021.11 1021.56 1021.66 1021.66 1021.81 1022.39 1023.63 1024.27 1023.93 1023.30 1022.92 1022.64 1022.66 1022.90 1023.06 1022.71 1022.37 1021.16 1020.86 1019.35 1019.06 1019.06 1019.20 1019.59 1020.42 1021.24 1022.14
1008.33 1010.25 1012.45 1013.02 1014.45 1015.50 1015.20 1014.63 1014.58 1015.69 1015.94 1016.33 1016.44 1016.30 1017.21 1017.74 1017.77 1019.07 1020.01 1020.80 1020.76 1022.37 1022.55 1023.25 1025.04 1025.64 1025.81 1024.94 1023.94 1023.25 1022.58 1022.68 1022.47 1022.15 1021.56 1020.99 1019.77 1018.17 1017.96 1018.44 1018.72 1019.06 1020.00 1020.46 1020.92
1006.45 1007.92 1008.55 1011.45 1012.85 1013.76 1011.77 1012.70 1013.30 1014.10 1015.05 1014.87 1015.23 1016.12 1017.16 1017.14 1017.61 1018.24 1019.17 1019.55 1020.15 1021.31 1023.03 1024.01 1025.32 1026.66 1027.01 1025.86 1024.55 1023.51 1020.88 1020.95 1021.11 1020.55 1020.18 1020.38 1018.44 1017.56 1018.53 1018.68 1018.17 1018.36 1018.64 1019.38 1020.12
Wind_Speed
5 5 6 8 9 11 12 13 13 13 13 13 13 13 12 13 9 6 7 7 9 17 11 6 4 5 6 5 6 3 7 2 2 4 2 3 3 4 3 2 3 3 4 9 16
6 5 6 7 8 10 11 13 13 13 13 13 12 12 12 11 3 7 4 16 16 13 5 6 6 6 6 5 5 7 5 4 2 3 2 1 1 3 4 6 3 6 8 11 10
8 5 6 6 7 10 11 12 13 14 13 13 12 12 12 5 2 3 12 18 19 10 2 0 1 4 6 4 5 3 4 5 1 2 3 1 1 1 4 3 2 11 18 15 15
9 7 6 7 7 8 11 12 13 14 14 12 12 11 12 2 1 3 15 18 15 7 3 4 5 5 5 5 4 8 4 3 3 2 2 1 1 0 2 4 8 11 13 15 17
9 8 7 7 8 8 10 12 13 13 13 12 11 11 3 5 1 6 14 13 5 3 5 3 5 4 6 5 4 7 3 4 2 1 3 1 0 1 2 5 9 10 12 14 15
7 7 7 7 8 9 9 12 13 13 12 11 11 10 1 2 3 6 8 7 7 5 6 6 3 4 7 4 5 3 5 4 4 2 2 1 0 1 3 7 9 10 14 14 15
10 7 7 8 8 10 9 12 13 12 11 10 9 3 6 2 3 7 6 3 5 3 4 3 1 5 4 5 4 5 5 2 4 2 0 2 2 3 4 7 9 12 13 14 13
11 9 6 8 9 10 10 11 13 12 11 8 8 1 2 2 2 4 6 3 6 4 3 1 5 8 5 4 6 5 5 2 2 5 1 2 2 1 6 6 11 13 13 15 15
9 9 7 8 9 10 11 11 13 11 9 8 1 1 1 3 3 4 3 3 5 2 3 2 6 5 5 5 5 8 2 3 4 3 5 5 3 3 5 8 10 11 12 13 18
10 9 8 7 9 10 12 12 7 7 2 1 1 4 1 0 3 3 3 3 3 2 4 8 6 5 6 6 2 2 3 2 2 5 5 4 5 6 5 7 8 10 12 12 13
12 11 9 7 7 8 8 3 4 3 8 2 1 2 1 4 2 4 4 4 1 7 3 5 9 3 2 3 4 7 4 1 3 2 3 3 4 5 3 6 8 9 10 11 12
13 11 9 7 6 6 2 2 3 3 4 2 2 2 1 1 2 4 5 2 3 4 2 8 4 3 6 4 5 4 4 3 4 5 4 3 5 4 3 2 3 6 8 10 12
14 12 9 6 4 2 3 3 2 1 4 1 0 1 1 1 1 2 4 0 5 4 3 6 4 5 2 2 3 2 5 1 3 5 1 4 7 5 1 1 5 5 6 6 8
16 14 11 6 1 3 4 4 3 1 6 2 1 1 0 2 2 1 2 1 4 6 4 6 2 2 2 2 1 3 1 2 3 4 1 3 5 5 3 4 4 7 7 8 10
18 16 14 11 2 2 1 5 4 4 2 2 2 1 1 3 3 3 1 3 4 5 4 1 5 2 1 2 1 2 2 2 3 3 4 3 3 7 1 4 2 5 7 8 8
20 17 16 5 1 4 4 5 4 8 8 4 3 3 4 1 1 1 2 5 3 6 6 2 1 1 2 2 2 1 1 3 4 2 4 4 3 5 3 4 2 2 3 5 7
23 19 13 5 3 5 4 4 5 5 4 4 5 5 3 4 2 1 3 4 5 7 1 4 1 1 1 2 2 4 4 3 6 6 6 2 1 9 3 4 6 7 5 2 3
25 21 6 3 2 5 2 5 5 2 7 3 4 5 5 6 2 2 4 2 3 5 5 7 4 2 2 1 3 2 4 5 5 1 5 3 4 3 1 3 3 4 5 3 1
25 4 4 3 5 0 5 3 9 8 8 10 4 6 2 3 5 3 5 5 7 8 6 6 2 1 2 0 0 3 0 2 7 3 4 3 6 2 4 4 5 7 6 6 4
9 6 3 6 6 2 5 10 5 4 6 3 7 5 8 7 6 5 7 4 5 6 1 6 7 1 2 2 2 2 3 3 4 3 4 5 5 5 6 10 8 8 10 8 6
8 6 1 4 2 4 6 7 5 5 3 7 6 5 5 9 8 6 6 1 3 4 3 5 5 3 2 5 7 2 1 3 2 3 4 2 7 6 3 3 9 10 8 8 8
6 6 1 2 3 1 5 8 4 5 2 2 4 5 7 7 7 3 9 3 5 8 9 4 6 4 1 2 1 1 4 6 5 3 1 3 9 4 6 3 7 9 9 8 7
8 4 1 3 7 3 2 1 4 5 6 7 4 2 3 7 5 5 4 2 1 6 7 7 2 4 8 5 4 5 5 4 5 3 5 4 7 1 4 5 4 7 8 8 9
7 6 2 1 1 8 6 4 4 2 4 4 5 5 4 3 4 7 4 1 2 1 3 3 3 6 8 5 6 5 6 5 5 4 4 7 9 6 5 6 5 6 6 8 9
4 5 7 11 10 2 9 11 9 6 3 4 1 5 8 5 3 3 2 3 3 3 3 4 5 2 4 4 1 4 6 10 9 5 7 6 7 9 7 6 7 7 5 7 8
9 9 2 4 16 8 14 13 19 7 10 7 6 11 7 8 10 11 10 6 7 2 5 1 3 3 3 5 5 4 5 8 6 4 9 5 14 8 9 5 5 8 6 9 10
3 3 8 14 18 15 17 13 12 12 5 3 10 8 6 5 4 4 6 8 6 9 5 6 8 4 5 3 3 7 13 14 7 6 9 8 13 4 3 7 5 5 8 9 9
Wind_Direction
302 321 331 337 342 340 339 339 340 340 342 343 342 346 349 349 346 29 41 305 317 317 328 297 21 14 35 57 37 83 64 114 157 148 183 340 10 337 299 355 328 135 243 262 302
285 301 314 327 335 336 336 336 335 334 338 340 339 342 340 345 50 48 315 333 329 331 357 28 9 18 52 26 24 65 86 166 196 154 168 179 140 301 10 344 315 301 286 289 304
273 280 300 314 328 332 332 331 331 331 335 336 335 335 328 326 87 320 330 335 333 339 194 324 333 63 62 26 6 48 117 156 171 165 145 98 61 56 345 334 260 304 308 311 315
265 270 283 300 317 327 328 328 328 329 330 332 330 332 321 292 131 280 329 331 335 346 122 38 41 55 70 57 12 90 76 145 160 84 122 149 153 258 58 267 299 292 291 309 320
254 252 270 288 304 319 325 324 325 326 327 327 326 329 319 46 312 297 329 332 1 27 42 65 59 111 97 95 69 77 139 82 94 130 140 128 44 282 260 324 308 303 316 325 327
223 230 260 282 297 311 320 321 321 323 323 322 324 329 330 90 312 314 331 342 11 37 19 29 95 105 89 71 73 116 105 88 38 133 187 23 140 354 331 329 316 333 338 334 333
237 219 251 276 292 304 318 318 317 320 315 314 324 352 55 148 320 322 349 347 353 18 67 19 328 71 131 94 138 115 79 62 19 337 283 175 31 352 312 332 337 340 339 332 334
235 237 236 270 288 299 310 316 315 312 305 306 322 33 94 295 307 340 344 336 359 20 78 47 74 93 59 116 39 57 54 58 322 11 3 90 341 315 334 353 346 346 346 338 337
201 230 231 261 279 297 306 314 309 300 294 304 320 82 117 327 358 314 19 350 314 353 33 67 65 77 33 71 35 16 121 11 357 52 358 45 291 345 349 18 343 349 345 341 339
191 215 223 253 278 300 307 306 292 317 337 268 29 41 356 259 312 339 337 355 37 336 32 41 50 71 37 53 214 235 69 14 314 340 9 10 323 322 351 25 344 346 342 349 345
188 202 216 244 275 304 338 40 39 354 42 81 93 103 66 298 287 5 15 343 27 46 64 17 67 89 129 86 114 116 98 39 261 294 25 358 290 306 349 19 356 350 341 343 343
184 191 201 229 268 303 48 173 199 149 110 48 102 59 49 271 75 6 1 94 70 97 55 27 98 172 133 137 111 101 103 312 298 304 66 360 296 305 360 5 360 336 331 338 342
180 180 188 211 276 351 206 241 132 131 92 172 135 161 204 355 112 319 8 72 100 69 19 128 162 142 178 108 125 86 113 149 183 327 334 326 317 331 248 47 352 354 320 340 342
177 170 172 167 9 197 229 158 128 95 72 214 205 296 164 119 38 309 19 108 49 134 119 89 88 116 98 67 38 74 152 133 95 50 246 48 266 302 267 302 348 347 339 339 345
174 170 164 172 259 204 242 136 118 55 5 112 171 272 27 142 132 354 343 29 123 118 112 234 141 128 96 103 65 161 184 143 112 80 51 319 82 266 338 276 295 321 335 346 349
168 167 157 181 276 251 141 109 59 50 255 162 129 158 109 52 55 40 61 49 123 83 38 92 98 91 154 68 74 16 108 52 57 60 34 298 118 276 206 208 190 248 307 339 347
164 165 141 150 231 147 155 77 66 172 355 240 179 163 136 143 118 185 150 134 146 93 341 13 0 337 73 92 72 74 64 356 356 12 213 210 23 241 196 202 185 192 224 249 338
157 151 142 170 158 148 92 67 160 217 205 162 130 103 169 155 162 157 117 158 235 101 112 142 313 155 2 155 162 86 129 147 194 254 282 264 252 266 196 138 137 158 185 202 294
138 102 135 196 144 203 86 141 202 198 162 146 88 103 244 144 142 154 205 214 208 181 135 134 6 5 64 46 353 133 28 156 110 51 29 270 288 278 153 182 190 190 192 222 209
131 125 173 153 145 83 86 212 203 177 131 145 147 150 174 183 137 169 178 209 198 191 189 194 102 4 21 46 21 79 150 57 357 81 305 294 281 245 225 227 211 212 207 203 201
121 125 131 126 101 58 189 217 201 215 171 154 162 132 194 171 155 186 203 275 173 146 111 150 106 269 34 197 180 114 94 60 114 124 167 308 273 209 215 225 212 219 211 196 190
134 137 175 92 119 221 173 189 150 158 183 167 119 116 164 159 141 188 204 246 175 152 159 199 119 131 193 9 17 151 159 144 120 233 220 149 272 198 226 240 196 214 199 187 182
118 106 63 90 182 228 308 17 158 138 194 165 168 161 167 164 131 177 187 27 196 156 169 178 307 70 351 359 350 219 191 144 124 108 210 144 260 180 251 270 225 193 199 188 182
117 124 120 211 284 154 145 199 173 243 171 157 138 103 114 108 360 156 137 150 15 154 92 81 121 159 181 178 132 185 178 168 133 117 178 236 299 293 261 248 234 213 199 194 186
143 165 174 179 213 208 181 163 154 173 244 201 79 207 168 119 79 147 125 120 41 160 73 113 154 85 34 50 84 174 172 173 185 190 167 202 216 263 258 257 245 227 190 194 197
141 143 107 157 159 176 197 198 182 172 149 218 198 178 192 156 183 182 143 187 182 165 148 71 162 108 336 352 24 271 222 202 218 235 269 287 284 234 256 251 245 241 214 219 207
114 91 131 163 175 181 205 177 188 159 225 218 180 123 186 207 104 64 79 93 123 141 140 133 136 107 252 351 18 308 214 186 186 203 158 191 228 134 267 281 256 233 195 225 222